This is the latest recevied weather packets stored in our database for station/object NE8U. If no packets are shown the sender has not sent any weather packets the latest 1 day(s).
| Time | Temp. | Humidity | Pressure | Rain* | Wind** | Luminosity | Snow |
|---|---|---|---|---|---|---|---|
| 1778036294 | 19.44° C | 40% | 1013.4 hPa | 0 mm | - | 0 W/m² | - |
| 1778035990 | 19.44° C | 39% | 1013.4 hPa | 0 mm | - | 0 W/m² | - |
| 1778035688 | 20° C | 39% | 1013.2 hPa | 0 mm | - | 0 W/m² | - |
| 1778035384 | 20° C | 38% | 1013.4 hPa | 0 mm | - | 0 W/m² | - |
| 1778035080 | 20° C | 38% | 1013.1 hPa | 0 mm | - | 0 W/m² | - |
| 1778034778 | 20° C | 38% | 1013.1 hPa | 0 mm | - | 0 W/m² | - |
| 1778034474 | 20° C | 38% | 1013 hPa | 0 mm | - | 0 W/m² | - |
| 1778034172 | 20° C | 37% | 1012.7 hPa | 0 mm | - | 0 W/m² | - |
| 1778033870 | 20° C | 37% | 1012.8 hPa | 0 mm | - | 0 W/m² | - |
| 1778033567 | 20.56° C | 36% | 1012.8 hPa | 0 mm | - | 0 W/m² | - |
| 1778033263 | 20.56° C | 35% | 1012.6 hPa | 0 mm | - | 2 W/m² | - |
| 1778032961 | 20.56° C | 34% | 1012.5 hPa | 0 mm | - | 4 W/m² | - |
| 1778032356 | 20.56° C | 33% | 1012.6 hPa | 0 mm | - | 12 W/m² | - |
| 1778032053 | 21.11° C | 32% | 1012.4 hPa | 0 mm | - | 15 W/m² | - |
| 1778031749 | 21.11° C | 32% | 1012.3 hPa | 0 mm | - | 17 W/m² | - |
| 1778031446 | 21.67° C | 31% | 1012.3 hPa | 0 mm | - | 20 W/m² | - |
| 1778031143 | 21.67° C | 31% | 1012.3 hPa | 0 mm | - | 25 W/m² | - |
| 1778030537 | 22.22° C | 32% | 1012.3 hPa | 0 mm | - | 29 W/m² | - |
| 1778030234 | 22.22° C | 32% | 1012.2 hPa | 0 mm | - | 32 W/m² | - |
| 1778029930 | 22.22° C | 32% | 1012.1 hPa | 0 mm | - | 39 W/m² | - |
| 1778029629 | 22.22° C | 32% | 1012.1 hPa | 0 mm | - | 49 W/m² | - |
| 1778029326 | 22.78° C | 32% | 1012.1 hPa | 0 mm | - | 53 W/m² | - |
| 1778029023 | 22.78° C | 32% | 1012.1 hPa | 0 mm | - | 69 W/m² | - |
| 1778028415 | 23.33° C | 31% | 1011.7 hPa | 0 mm | - | 121 W/m² | - |
| 1778027809 | 22.78° C | 31% | 1012 hPa | 0 mm | - | 62 W/m² | - |
* Rain latest hour (hover to see other rain measurements)
** Current wind speed in m/s (hover to see current wind gust speed)